QPF
0.00 0.00 0.00 0.00 0.00 0.00 0.01 0.02 0.00 0.00 0.00 0.00 0.00 0.00 0.00 0.00 0.00 0.00 0.00 0.00 0.00 0.00 0.00 0.00 0.00 0.00 0.00 0.00 0.00 0.00 0.00 0.00 0.00 0.00 0.00 0.00 0.00 0.00 0.00 0.00 0.00 0.00 0.00 0.00 0.00 0.00 0.00 0.00 0.00
0.00 0.00 0.00 0.00 0.00 0.00 0.00 0.00 0.00 0.00 0.00 0.00 0.00 0.00 0.00 0.00 0.00 0.00 0.00 0.00 0.00 0.00 0.00 0.00 0.00 0.00 0.00 0.00 0.00 0.00 0.00 0.00 0.00 0.00 0.00 0.00 0.00 0.00 0.00 0.00 0.00 0.00 0.00 0.00 0.00 0.00 0.00 0.00 0.00
0.00 0.00 0.00 0.00 0.00 0.00 0.00 0.00 0.00 0.00 0.00 0.00 0.00 0.00 0.00 0.00 0.00 0.00 0.00 0.00 0.00 0.00 0.00 0.00 0.00 0.00 0.00 0.00 0.00 0.00 0.00 0.00 0.00 0.00 0.00 0.00 0.00 0.00 0.00 0.00 0.00 0.00 0.00 0.00 0.00 0.00 0.00 0.00 0.00
0.00 0.00 0.00 0.00 0.00 0.00 0.00 0.00 0.00 0.00 0.00 0.00 0.00 0.00 0.00 0.00 0.00 0.00 0.00 0.00 0.00 0.00 0.00 0.00 0.00 0.00 0.00 0.00 0.00 0.00 0.00 0.00 0.00 0.00 0.00 0.00 0.00 0.00 0.00 0.00 0.00 0.00 0.00 0.00 0.00 0.00 0.00 0.00 0.00
0.00 0.00 0.00 0.00 0.00 0.00 0.00 0.00 0.00 0.00 0.00 0.00 0.00 0.00 0.00 0.00 0.00 0.00 0.00 0.00 0.00 0.00 0.00 0.00 0.00 0.00 0.00 0.00 0.00 0.00 0.00 0.00 0.00 0.00 0.00 0.00 0.00 0.00 0.00 0.00 0.00 0.00 0.00 0.00 0.00 0.00 0.00 0.00 0.00
0.00 0.00 0.00 0.00 0.00 0.00 0.00 0.00 0.00 0.00 0.00 0.00 0.00 0.00 0.00 0.00 0.00 0.00 0.00 0.00 0.00 0.00 0.00 0.00 0.00 0.00 0.00 0.00 0.00 0.00 0.00 0.00 0.00 0.00 0.00 0.00 0.00 0.00 0.00 0.00 0.00 0.00 0.00 0.00 0.00 0.00 0.00 0.00 0.00
0.00 0.00 0.00 0.00 0.00 0.00 0.00 0.00 0.00 0.00 0.00 0.00 0.00 0.00 0.00 0.00 0.00 0.00 0.00 0.00 0.00 0.00 0.00 0.00 0.00 0.00 0.00 0.00 0.00 0.00 0.00 0.00 0.00 0.00 0.00 0.00 0.00 0.00 0.00 0.00 0.00 0.00 0.00 0.00 0.00 0.00 0.00 0.00 0.00
0.00 0.00 0.00 0.00 0.00 0.00 0.00 0.00 0.00 0.00 0.00 0.00 0.00 0.00 0.00 0.00 0.00 0.00 0.00 0.00 0.00 0.00 0.00 0.00 0.00 0.00 0.00 0.00 0.00 0.00 0.00 0.00 0.00 0.00 0.00 0.00 0.00 0.00 0.00 0.00 0.00 0.00 0.00 0.00 0.00 0.00 0.00 0.00 0.00
0.00 0.00 0.00 0.00 0.00 0.00 0.00 0.00 0.00 0.00 0.00 0.00 0.00 0.00 0.00 0.00 0.00 0.00 0.00 0.00 0.00 0.00 0.00 0.00 0.00 0.00 0.00 0.00 0.00 0.00 0.00 0.00 0.00 0.00 0.00 0.00 0.00 0.00 0.00 0.00 0.00 0.00 0.00 0.00 0.00 0.00 0.00 0.00 0.00
0.00 0.00 0.00 0.00 0.00 0.00 0.00 0.00 0.00 0.00 0.00 0.00 0.00 0.00 0.00 0.00 0.00 0.00 0.00 0.00 0.00 0.00 0.00 0.00 0.00 0.00 0.00 0.00 0.00 0.00 0.00 0.00 0.00 0.00 0.00 0.00 0.00 0.00 0.00 0.00 0.00 0.00 0.00 0.00 0.00 0.00 0.00 0.00 0.00
0.00 0.00 0.00 0.00 0.00 0.00 0.00 0.00 0.00 0.00 0.00 0.00 0.00 0.00 0.00 0.00 0.00 0.00 0.00 0.00 0.00 0.00 0.00 0.00 0.00 0.00 0.00 0.00 0.00 0.00 0.00 0.00 0.00 0.00 0.00 0.00 0.00 0.00 0.00 0.00 0.00 0.00 0.00 0.00 0.00 0.00 0.00 0.00 0.00
0.00 0.00 0.00 0.00 0.00 0.00 0.00 0.00 0.00 0.00 0.00 0.00 0.00 0.00 0.00 0.00 0.00 0.00 0.00 0.00 0.00 0.00 0.00 0.00 0.00 0.00 0.00 0.00 0.00 0.00 0.00 0.00 0.00 0.00 0.00 0.00 0.00 0.00 0.00 0.00 0.00 0.00 0.00 0.00 0.00 0.00 0.00 0.00 0.00
0.00 0.00 0.00 0.00 0.00 0.00 0.00 0.00 0.00 0.00 0.00 0.00 0.00 0.00 0.00 0.00 0.00 0.00 0.00 0.00 0.00 0.00 0.00 0.00 0.00 0.00 0.00 0.00 0.00 0.00 0.00 0.00 0.00 0.00 0.00 0.00 0.00 0.00 0.00 0.00 0.00 0.00 0.00 0.00 0.00 0.00 0.00 0.00 0.00
0.00 0.00 0.00 0.00 0.00 0.00 0.00 0.00 0.00 0.00 0.00 0.00 0.00 0.00 0.00 0.00 0.00 0.00 0.00 0.00 0.00 0.00 0.00 0.00 0.00 0.00 0.00 0.00 0.00 0.00 0.00 0.00 0.00 0.00 0.00 0.00 0.00 0.00 0.00 0.00 0.00 0.00 0.00 0.00 0.00 0.00 0.00 0.00 0.00
0.00 0.00 0.00 0.00 0.00 0.00 0.00 0.00 0.00 0.00 0.00 0.00 0.00 0.00 0.00 0.00 0.00 0.00 0.00 0.00 0.00 0.00 0.00 0.00 0.00 0.00 0.00 0.00 0.00 0.00 0.00 0.00 0.00 0.00 0.00 0.00 0.00 0.00 0.00 0.00 0.00 0.00 0.00 0.00 0.00 0.00 0.00 0.00 0.00
0.00 0.00 0.00 0.00 0.00 0.00 0.00 0.00 0.00 0.00 0.00 0.00 0.00 0.00 0.00 0.00 0.00 0.00 0.00 0.00 0.00 0.00 0.00 0.00 0.00 0.00 0.00 0.00 0.00 0.00 0.00 0.00 0.00 0.00 0.00 0.00 0.00 0.00 0.00 0.01 0.00 0.00 0.00 0.00 0.00 0.00 0.00 0.00 0.00
0.00 0.00 0.00 0.00 0.00 0.00 0.00 0.00 0.00 0.00 0.00 0.00 0.00 0.00 0.00 0.00 0.00 0.00 0.00 0.00 0.00 0.00 0.00 0.00 0.00 0.00 0.00 0.00 0.00 0.00 0.00 0.00 0.00 0.00 0.00 0.00 0.00 0.00 0.01 0.01 0.00 0.00 0.01 0.01 0.01 0.00 0.00 0.00 0.00
0.00 0.00 0.00 0.00 0.00 0.00 0.00 0.00 0.00 0.00 0.00 0.00 0.00 0.00 0.00 0.00 0.00 0.00 0.00 0.00 0.00 0.00 0.00 0.00 0.00 0.00 0.00 0.00 0.00 0.00 0.00 0.00 0.00 0.00 0.00 0.00 0.00 0.00 0.01 0.01 0.01 0.01 0.01 0.01 0.02 0.02 0.01 0.00 0.00
0.00 0.00 0.00 0.00 0.00 0.00 0.00 0.00 0.00 0.00 0.00 0.00 0.00 0.00 0.00 0.00 0.00 0.00 0.00 0.00 0.00 0.00 0.00 0.00 0.00 0.00 0.00 0.00 0.00 0.00 0.00 0.00 0.00 0.00 0.00 0.00 0.00 0.00 0.01 0.00 0.01 0.01 0.02 0.03 0.03 0.03 0.03 0.02 0.01
0.00 0.00 0.00 0.00 0.00 0.00 0.00 0.00 0.00 0.00 0.00 0.00 0.00 0.00 0.00 0.00 0.00 0.00 0.00 0.00 0.00 0.00 0.00 0.00 0.00 0.00 0.00 0.00 0.00 0.00 0.00 0.00 0.00 0.00 0.00 0.00 0.00 0.01 0.00 0.01 0.01 0.02 0.02 0.02 0.03 0.04 0.04 0.03 0.01
0.00 0.00 0.00 0.00 0.00 0.00 0.00 0.00 0.00 0.00 0.00 0.00 0.00 0.00 0.00 0.00 0.00 0.00 0.00 0.00 0.00 0.00 0.00 0.00 0.00 0.00 0.00 0.00 0.00 0.00 0.00 0.00 0.00 0.00 0.00 0.00 0.00 0.00 0.00 0.01 0.02 0.01 0.02 0.03 0.03 0.03 0.04 0.05 0.04
0.00 0.00 0.00 0.00 0.00 0.00 0.00 0.00 0.00 0.00 0.00 0.00 0.00 0.00 0.00 0.00 0.00 0.00 0.00 0.00 0.00 0.00 0.00 0.00 0.00 0.00 0.00 0.00 0.00 0.00 0.00 0.00 0.00 0.00 0.00 0.00 0.00 0.00 0.00 0.00 0.01 0.01 0.02 0.03 0.03 0.02 0.06 0.05 0.04
0.00 0.00 0.00 0.00 0.00 0.00 0.00 0.00 0.00 0.00 0.00 0.00 0.00 0.00 0.00 0.00 0.00 0.00 0.00 0.00 0.00 0.00 0.00 0.00 0.00 0.00 0.00 0.00 0.00 0.00 0.00 0.00 0.00 0.00 0.00 0.00 0.00 0.00 0.00 0.00 0.01 0.01 0.02 0.04 0.03 0.02 0.04 0.03 0.03
0.00 0.00 0.00 0.00 0.00 0.00 0.00 0.00 0.00 0.00 0.00 0.00 0.00 0.00 0.00 0.00 0.00 0.00 0.00 0.00 0.00 0.00 0.00 0.00 0.00 0.00 0.00 0.00 0.00 0.00 0.00 0.00 0.00 0.00 0.00 0.00 0.00 0.00 0.00 0.00 0.01 0.01 0.01 0.04 0.03 0.01 0.01 0.03 0.06
0.00 0.00 0.00 0.00 0.00 0.00 0.00 0.00 0.00 0.00 0.00 0.00 0.00 0.00 0.00 0.00 0.00 0.00 0.00 0.00 0.00 0.00 0.00 0.00 0.00 0.00 0.00 0.00 0.00 0.00 0.00 0.00 0.00 0.00 0.00 0.00 0.00 0.00 0.00 0.02 0.02 0.01 0.01 0.01 0.01 0.01 0.01 0.01 0.01
0.00 0.00 0.00 0.00 0.00 0.00 0.00 0.00 0.00 0.00 0.00 0.00 0.00 0.00 0.00 0.00 0.00 0.00 0.00 0.00 0.00 0.00 0.00 0.00 0.00 0.00 0.00 0.00 0.00 0.00 0.00 0.00 0.00 0.00 0.00 0.00 0.00 0.00 0.01 0.10 0.05 0.02 0.01 0.00 0.00 0.01 0.01 0.01 0.01
0.00 0.00 0.00 0.00 0.00 0.00 0.00 0.00 0.00 0.00 0.00 0.00 0.00 0.00 0.00 0.00 0.00 0.00 0.00 0.00 0.00 0.00 0.00 0.00 0.00 0.00 0.00 0.00 0.00 0.00 0.00 0.00 0.00 0.00 0.00 0.00 0.00 0.00 0.01 0.13 0.06 0.03 0.01 0.00 0.00 0.01 0.01 0.01 0.01
0.00 0.00 0.00 0.00 0.00 0.00 0.00 0.00 0.00 0.00 0.00 0.00 0.00 0.00 0.00 0.00 0.00 0.00 0.00 0.00 0.00 0.00 0.00 0.00 0.00 0.00 0.00 0.00 0.00 0.00 0.00 0.00 0.00 0.00 0.00 0.00 0.00 0.00 0.01 0.09 0.04 0.02 0.00 0.00 0.01 0.03 0.02 0.02 0.01
0.00 0.00 0.00 0.00 0.00 0.00 0.00 0.00 0.00 0.00 0.00 0.00 0.00 0.00 0.00 0.00 0.00 0.00 0.00 0.00 0.00 0.00 0.00 0.00 0.00 0.00 0.00 0.00 0.00 0.00 0.00 0.00 0.00 0.00 0.00 0.00 0.00 0.00 0.00 0.04 0.04 0.01 0.00 0.00 0.01 0.01 0.01 0.01 0.01
0.00 0.00 0.00 0.00 0.00 0.00 0.00 0.00 0.00 0.00 0.00 0.00 0.00 0.00 0.00 0.00 0.00 0.00 0.00 0.00 0.00 0.00 0.00 0.00 0.00 0.00 0.00 0.00 0.00 0.00 0.00 0.00 0.00 0.00 0.00 0.00 0.00 0.00 0.00 0.00 0.01 0.01 0.00 0.00 0.00 0.00 0.00 0.00 0.00
MSLP
1011.44 1010.81 1010.68 1010.61 1011.44 1010.65 1011.01 1012.50 1012.73 1013.50 1014.40 1015.51 1015.82 1016.25 1018.18 1019.24 1020.10 1022.16 1023.07 1022.91 1022.71 1022.64 1022.46 1022.52 1022.47 1022.48 1022.32 1022.04 1021.72 1021.44 1021.12 1020.81 1020.42 1020.08 1019.74 1019.31 1018.96 1018.69 1018.36 1018.17 1017.87 1017.56 1017.29 1017.02 1016.92 1016.77 1016.60 1016.13 1015.76
1011.11 1010.36 1010.53 1010.56 1010.83 1010.75 1012.18 1012.90 1013.97 1014.89 1015.58 1015.96 1016.58 1017.06 1018.41 1020.66 1021.36 1022.36 1022.85 1022.84 1022.60 1022.49 1022.42 1022.44 1022.40 1022.47 1022.33 1022.10 1021.80 1021.48 1021.21 1020.92 1020.59 1020.17 1019.74 1019.34 1018.97 1018.55 1018.26 1018.03 1017.82 1017.48 1017.17 1016.96 1016.84 1016.75 1016.47 1016.12 1015.72
1011.19 1010.32 1010.56 1010.23 1010.62 1012.44 1013.03 1014.04 1014.91 1015.70 1016.11 1016.18 1017.42 1018.64 1020.25 1021.77 1022.13 1022.60 1022.85 1022.66 1022.37 1022.38 1022.39 1022.45 1022.39 1022.42 1022.30 1022.09 1021.88 1021.63 1021.37 1021.01 1020.63 1020.29 1019.86 1019.51 1019.13 1018.84 1018.38 1018.02 1017.65 1017.30 1016.96 1016.87 1016.71 1016.65 1016.51 1016.25 1015.64
1010.48 1010.23 1010.20 1010.13 1011.82 1013.79 1014.21 1014.74 1015.49 1015.97 1016.52 1017.09 1018.15 1020.35 1021.84 1022.69 1022.80 1023.01 1022.76 1022.46 1022.38 1022.34 1022.35 1022.39 1022.27 1022.17 1022.08 1022.00 1021.88 1021.66 1021.35 1021.00 1020.80 1020.50 1020.01 1019.55 1019.10 1018.74 1018.26 1017.90 1017.49 1017.12 1016.87 1016.66 1016.61 1016.48 1016.40 1016.27 1015.80
1010.24 1010.18 1010.19 1010.51 1012.82 1014.47 1015.10 1015.42 1015.82 1016.44 1017.46 1018.06 1018.38 1020.85 1022.19 1023.08 1023.13 1023.03 1022.71 1022.33 1022.27 1022.26 1022.34 1022.42 1022.34 1022.18 1022.05 1021.95 1021.79 1021.48 1021.21 1021.00 1020.68 1020.32 1019.93 1019.63 1019.25 1018.76 1018.28 1017.93 1017.57 1017.27 1016.83 1016.55 1016.44 1016.36 1016.40 1016.11 1015.74
1010.09 1009.72 1010.24 1011.72 1013.76 1015.13 1015.84 1016.27 1016.68 1017.59 1018.58 1019.12 1019.52 1020.77 1022.47 1022.98 1023.24 1023.04 1022.60 1022.36 1022.07 1022.28 1022.39 1022.49 1022.44 1022.29 1022.13 1022.02 1021.87 1021.53 1021.22 1021.00 1020.72 1020.38 1019.96 1019.61 1019.38 1019.05 1018.46 1018.09 1017.61 1017.20 1016.82 1016.54 1016.53 1016.37 1016.13 1015.89 1015.62
1010.21 1010.28 1010.69 1012.22 1014.23 1015.58 1016.71 1017.23 1017.85 1018.67 1019.42 1020.47 1020.52 1020.68 1022.54 1023.04 1023.15 1022.80 1022.52 1022.26 1022.30 1022.45 1022.62 1022.69 1022.70 1022.59 1022.42 1022.23 1021.81 1021.31 1021.19 1020.88 1020.78 1020.60 1020.14 1019.69 1019.58 1019.17 1018.48 1017.93 1017.58 1017.15 1016.86 1016.59 1016.46 1016.25 1016.00 1015.69 1015.36
1010.82 1010.82 1011.10 1012.38 1014.11 1016.15 1017.63 1018.56 1019.29 1019.53 1020.96 1021.01 1021.15 1022.18 1022.91 1023.22 1022.91 1022.69 1022.57 1022.53 1022.64 1022.70 1022.78 1022.78 1022.79 1022.78 1022.70 1022.43 1021.91 1021.43 1021.38 1021.31 1021.20 1021.19 1020.66 1020.17 1020.32 1020.03 1019.49 1018.72 1017.91 1017.09 1016.70 1016.47 1016.21 1015.93 1015.62 1015.24 1014.96
1011.08 1011.57 1012.56 1013.93 1014.62 1016.91 1018.16 1019.04 1020.11 1020.85 1021.53 1022.08 1022.50 1023.15 1023.47 1023.28 1022.93 1022.95 1022.90 1022.93 1023.00 1022.94 1022.82 1022.75 1022.82 1022.84 1022.76 1022.57 1022.22 1022.19 1022.02 1021.64 1021.51 1021.57 1021.19 1021.00 1020.64 1020.24 1019.95 1019.08 1018.29 1017.30 1016.70 1016.30 1015.95 1015.52 1015.23 1014.97 1014.66
1012.06 1012.99 1014.89 1015.61 1016.07 1017.29 1018.32 1019.31 1020.47 1021.00 1021.85 1022.63 1023.07 1023.43 1023.48 1023.43 1023.27 1023.49 1023.43 1023.46 1023.29 1023.16 1022.91 1022.83 1022.88 1022.92 1022.78 1022.33 1022.34 1022.19 1021.97 1021.65 1021.59 1021.46 1021.27 1020.97 1020.58 1020.07 1019.48 1019.31 1018.65 1017.92 1017.43 1016.54 1015.92 1015.23 1014.83 1014.71 1014.82
1013.50 1014.81 1016.02 1016.66 1017.10 1017.94 1019.30 1020.23 1020.74 1021.58 1022.66 1023.47 1023.77 1023.83 1023.66 1023.63 1023.72 1023.79 1023.68 1023.66 1023.64 1023.40 1023.20 1023.05 1022.95 1022.94 1023.00 1022.80 1022.32 1022.10 1021.91 1021.63 1021.34 1021.23 1021.00 1020.61 1020.26 1019.91 1019.39 1019.11 1018.83 1018.36 1017.73 1017.29 1016.91 1015.97 1015.13 1014.78 1014.43
1015.07 1016.09 1016.89 1017.85 1018.52 1019.21 1020.17 1021.18 1022.25 1022.59 1023.57 1023.80 1023.82 1023.71 1023.79 1023.91 1023.99 1024.03 1023.96 1023.91 1023.78 1023.67 1023.50 1023.40 1023.20 1023.08 1022.89 1022.74 1022.68 1022.17 1021.65 1021.40 1021.14 1020.70 1020.60 1020.40 1020.07 1019.73 1019.44 1019.06 1018.68 1018.28 1017.89 1017.42 1017.02 1016.31 1015.76 1015.06 1014.20
1015.95 1017.32 1018.15 1018.75 1019.39 1020.18 1020.86 1021.73 1022.50 1023.35 1023.65 1023.56 1023.50 1023.54 1023.86 1024.06 1024.23 1024.16 1024.14 1024.24 1024.10 1023.84 1023.57 1023.58 1023.39 1023.17 1022.87 1022.61 1022.31 1022.03 1021.45 1021.18 1020.87 1020.76 1020.66 1020.28 1019.89 1019.63 1019.40 1018.99 1018.86 1018.52 1017.94 1017.45 1016.98 1016.49 1016.03 1015.57 1014.98
1016.86 1017.96 1018.90 1019.60 1020.14 1020.80 1021.50 1022.21 1022.50 1023.55 1023.57 1023.33 1023.39 1023.53 1023.80 1024.10 1024.20 1024.17 1024.30 1024.31 1024.31 1024.09 1023.64 1023.53 1023.42 1023.10 1022.76 1022.55 1022.25 1021.77 1021.23 1021.16 1021.06 1020.88 1020.64 1020.23 1019.88 1019.63 1019.12 1018.89 1018.66 1018.27 1017.91 1017.61 1017.00 1016.74 1016.35 1015.72 1015.35
1017.39 1018.33 1019.22 1019.86 1020.32 1020.90 1021.50 1022.24 1022.95 1023.49 1023.37 1023.36 1023.43 1023.53 1023.93 1024.12 1024.16 1024.36 1024.52 1024.57 1024.39 1024.21 1023.87 1023.55 1023.30 1023.04 1022.75 1022.67 1022.26 1021.70 1021.49 1021.31 1021.18 1020.90 1020.60 1020.21 1019.84 1019.58 1019.14 1018.82 1018.54 1018.05 1017.63 1017.25 1016.91 1016.45 1016.09 1015.85 1015.11
1016.85 1017.89 1018.51 1019.31 1020.02 1020.74 1021.52 1022.05 1023.01 1023.41 1023.36 1023.46 1023.55 1023.69 1024.05 1024.16 1024.24 1024.40 1024.65 1024.76 1024.51 1024.15 1023.97 1023.75 1023.43 1023.13 1022.90 1022.80 1022.38 1021.95 1021.77 1021.62 1021.46 1021.00 1020.64 1020.14 1019.77 1019.55 1019.11 1018.69 1018.22 1017.95 1017.51 1017.05 1016.69 1016.43 1016.16 1015.71 1015.20
1016.58 1016.60 1017.05 1018.67 1019.38 1020.29 1021.36 1021.76 1023.02 1023.39 1023.37 1023.55 1023.80 1024.10 1024.19 1024.36 1024.33 1024.41 1024.60 1024.78 1024.60 1024.33 1024.14 1023.95 1023.79 1023.53 1023.25 1022.93 1022.60 1022.37 1022.06 1021.82 1021.46 1020.97 1020.49 1020.21 1019.80 1019.55 1019.18 1018.75 1018.23 1017.68 1017.20 1016.81 1016.34 1015.92 1015.75 1015.48 1015.01
1016.01 1016.05 1016.28 1017.55 1019.03 1019.87 1020.78 1021.66 1022.65 1023.19 1023.44 1023.72 1024.01 1024.34 1024.55 1024.62 1024.65 1024.61 1024.62 1024.64 1024.59 1024.48 1024.29 1024.20 1023.94 1023.56 1023.11 1022.91 1022.68 1022.53 1022.20 1021.82 1021.47 1021.09 1020.86 1020.46 1019.87 1019.44 1019.00 1018.63 1018.12 1017.52 1016.99 1016.42 1016.13 1015.70 1015.45 1015.34 1015.10
1015.97 1016.02 1016.44 1017.78 1018.89 1019.67 1020.21 1020.90 1022.07 1022.90 1023.42 1023.77 1024.06 1024.44 1024.82 1024.84 1024.76 1024.78 1024.85 1024.81 1024.69 1024.64 1024.56 1024.34 1024.03 1023.57 1023.22 1023.12 1022.94 1022.59 1022.46 1022.06 1021.85 1021.35 1021.06 1020.56 1020.02 1019.37 1018.81 1018.34 1018.10 1017.48 1016.94 1016.31 1015.80 1015.48 1015.20 1014.94 1014.95
1015.99 1016.18 1017.15 1018.13 1019.00 1019.84 1019.91 1020.55 1021.49 1022.57 1023.19 1023.78 1023.98 1024.40 1024.77 1024.94 1025.05 1025.00 1025.15 1025.18 1025.01 1025.06 1024.88 1024.49 1024.12 1023.82 1023.69 1023.39 1023.09 1022.84 1022.77 1022.53 1022.03 1021.44 1021.23 1020.72 1019.93 1019.20 1018.73 1018.26 1017.79 1017.49 1016.76 1016.15 1015.64 1015.30 1014.91 1014.61 1014.59
1016.45 1017.25 1017.88 1018.41 1019.02 1019.53 1020.17 1020.32 1021.22 1022.25 1022.98 1023.66 1023.83 1024.35 1024.79 1025.13 1025.22 1025.31 1025.35 1025.39 1025.19 1025.29 1025.15 1024.65 1024.29 1024.02 1023.80 1023.48 1022.93 1022.72 1022.62 1022.19 1021.71 1021.40 1021.10 1020.54 1019.72 1019.11 1018.57 1018.05 1017.51 1017.09 1016.69 1015.94 1015.30 1014.91 1014.69 1014.37 1014.20
1017.53 1018.23 1018.47 1018.66 1019.24 1019.34 1019.97 1020.82 1021.32 1022.07 1023.04 1023.52 1024.13 1024.65 1025.28 1025.41 1025.39 1025.42 1025.61 1025.67 1025.49 1025.40 1025.14 1024.81 1024.46 1024.15 1023.80 1023.30 1022.96 1022.77 1022.49 1021.97 1021.53 1021.23 1021.04 1020.32 1019.42 1018.89 1018.22 1017.71 1017.19 1016.78 1016.30 1015.78 1015.06 1014.28 1014.31 1014.23 1013.98
1018.46 1018.66 1018.72 1018.80 1019.11 1019.35 1019.85 1020.95 1021.41 1022.17 1023.09 1023.75 1024.40 1024.98 1025.33 1025.39 1025.60 1025.84 1025.87 1025.92 1025.82 1025.49 1025.28 1024.90 1024.57 1024.23 1023.81 1023.43 1023.09 1022.80 1022.54 1022.00 1021.39 1021.04 1020.67 1020.17 1019.30 1018.78 1017.92 1017.35 1016.89 1016.35 1016.01 1015.53 1014.94 1014.11 1013.85 1013.53 1013.43
1018.83 1018.82 1018.63 1018.88 1019.19 1019.42 1019.46 1020.68 1021.92 1022.62 1023.25 1024.02 1024.86 1025.12 1025.44 1025.59 1025.67 1025.86 1026.06 1026.10 1026.07 1025.63 1025.33 1024.97 1024.66 1024.29 1023.84 1023.50 1023.16 1022.75 1022.44 1021.97 1021.54 1021.03 1020.59 1019.86 1019.21 1018.44 1017.61 1016.96 1016.43 1015.94 1015.66 1015.26 1014.69 1014.05 1013.55 1013.33 1013.28
1019.01 1018.86 1019.06 1019.49 1019.46 1019.43 1019.74 1020.87 1021.77 1022.77 1023.53 1024.17 1024.65 1025.13 1025.47 1025.73 1025.91 1026.00 1026.11 1026.10 1025.98 1025.63 1025.46 1025.08 1024.75 1024.39 1023.90 1023.59 1023.22 1022.71 1022.49 1022.37 1021.95 1021.39 1020.74 1019.87 1018.99 1018.12 1017.26 1016.70 1016.07 1015.53 1015.26 1014.95 1014.47 1013.85 1013.37 1013.33 1013.46
1019.22 1019.38 1019.83 1020.26 1019.98 1019.95 1020.20 1021.11 1022.15 1022.92 1023.48 1023.81 1024.33 1025.03 1025.41 1025.78 1025.98 1026.14 1026.17 1026.16 1026.02 1025.70 1025.47 1025.18 1024.84 1024.43 1023.97 1023.67 1023.30 1022.79 1022.86 1022.68 1022.25 1021.65 1020.87 1019.88 1019.12 1018.26 1017.34 1016.49 1015.53 1014.99 1014.92 1014.74 1014.31 1013.72 1013.27 1013.15 1013.34
1019.55 1019.79 1020.47 1020.65 1020.14 1020.82 1020.11 1021.62 1022.58 1023.16 1023.37 1023.68 1024.34 1024.91 1025.55 1026.01 1026.16 1026.21 1026.18 1026.11 1025.84 1025.69 1025.50 1025.16 1024.78 1024.45 1024.05 1023.75 1023.33 1022.94 1023.00 1022.75 1022.30 1021.51 1020.64 1019.81 1019.12 1018.29 1017.52 1016.75 1015.61 1014.91 1014.89 1014.64 1014.15 1013.61 1013.18 1013.01 1012.98
1020.21 1020.48 1020.83 1021.22 1021.73 1021.75 1020.46 1021.23 1022.28 1023.11 1023.38 1023.90 1024.53 1025.10 1025.73 1025.93 1026.06 1026.14 1026.11 1026.04 1025.84 1025.68 1025.49 1025.04 1024.70 1024.45 1024.15 1023.81 1023.34 1023.17 1023.08 1022.53 1021.97 1021.32 1020.61 1019.82 1019.10 1018.44 1017.79 1017.21 1016.35 1015.56 1015.05 1014.57 1014.16 1013.70 1013.22 1013.00 1013.06
1020.59 1020.55 1020.91 1021.53 1022.36 1022.96 1022.62 1021.80 1021.61 1022.83 1023.56 1024.17 1024.59 1025.00 1025.54 1025.64 1025.98 1026.14 1026.12 1026.04 1026.04 1025.71 1025.54 1025.24 1024.85 1024.58 1024.30 1023.91 1023.40 1023.44 1023.06 1022.50 1021.90 1021.49 1020.95 1020.18 1019.26 1018.73 1018.13 1017.54 1017.01 1016.37 1015.82 1015.30 1014.86 1014.45 1014.06 1013.59 1013.37
1020.65 1020.76 1021.24 1022.26 1023.13 1023.42 1023.78 1022.34 1022.07 1022.86 1023.49 1024.03 1024.57 1025.05 1025.21 1025.60 1025.92 1026.05 1026.21 1026.49 1026.54 1026.12 1025.74 1025.36 1025.07 1024.79 1024.44 1024.01 1023.57 1023.60 1023.16 1022.58 1022.03 1021.65 1021.12 1020.39 1019.54 1019.04 1018.43 1017.99 1017.38 1016.78 1016.36 1015.97 1015.51 1015.11 1014.75 1014.39 1014.16
Thickness
5770 5775 5776 5766 5730 5740 5732 5718 5735 5719 5712 5709 5708 5697 5676 5671 5662 5638 5647 5646 5645 5644 5643 5641 5639 5636 5636 5637 5638 5639 5640 5641 5643 5645 5647 5650 5654 5657 5658 5660 5663 5666 5670 5673 5676 5678 5681 5686 5691
5772 5777 5769 5751 5727 5721 5709 5726 5708 5705 5705 5707 5698 5696 5679 5653 5657 5645 5639 5641 5639 5636 5635 5632 5630 5627 5626 5626 5627 5627 5628 5628 5629 5631 5633 5637 5640 5645 5649 5651 5652 5656 5660 5664 5665 5669 5673 5678 5683
5771 5777 5750 5740 5731 5700 5704 5711 5703 5702 5703 5702 5686 5676 5660 5644 5647 5639 5636 5633 5632 5630 5627 5624 5622 5619 5616 5615 5614 5613 5613 5614 5616 5617 5619 5621 5624 5626 5631 5637 5641 5644 5649 5653 5655 5657 5661 5665 5672
5768 5763 5756 5731 5707 5703 5703 5704 5702 5697 5698 5693 5677 5651 5646 5640 5636 5631 5630 5629 5627 5623 5619 5615 5613 5611 5609 5606 5603 5602 5601 5602 5600 5601 5604 5607 5610 5613 5617 5621 5627 5632 5636 5640 5642 5647 5648 5651 5659
5767 5754 5730 5728 5705 5701 5702 5705 5704 5691 5683 5677 5676 5644 5638 5635 5627 5625 5625 5623 5620 5616 5610 5605 5601 5599 5597 5593 5590 5589 5587 5586 5587 5588 5589 5590 5593 5597 5601 5606 5610 5614 5619 5626 5629 5632 5635 5639 5645
5745 5755 5724 5705 5695 5698 5697 5698 5693 5680 5670 5664 5659 5646 5630 5629 5621 5619 5619 5617 5613 5608 5602 5596 5590 5585 5581 5576 5571 5569 5567 5566 5565 5566 5568 5570 5572 5575 5580 5585 5591 5596 5602 5608 5611 5616 5619 5626 5632
5742 5735 5726 5707 5694 5691 5686 5689 5676 5666 5660 5644 5647 5640 5627 5621 5619 5617 5614 5609 5603 5595 5588 5581 5574 5568 5562 5556 5553 5550 5546 5543 5540 5539 5541 5544 5545 5549 5557 5565 5571 5576 5581 5588 5593 5599 5605 5609 5617
5744 5739 5734 5721 5699 5684 5679 5671 5664 5660 5640 5647 5641 5619 5613 5613 5615 5611 5605 5598 5591 5584 5576 5568 5560 5553 5546 5541 5538 5535 5527 5520 5516 5513 5514 5516 5513 5516 5523 5533 5543 5554 5562 5568 5574 5581 5589 5596 5602
5755 5723 5708 5700 5703 5676 5674 5662 5657 5651 5638 5632 5627 5616 5611 5609 5607 5599 5592 5585 5577 5570 5563 5556 5548 5540 5533 5527 5523 5518 5513 5509 5503 5497 5495 5494 5494 5495 5496 5504 5512 5524 5535 5545 5552 5562 5570 5578 5586
5729 5710 5690 5697 5693 5675 5673 5662 5650 5645 5633 5623 5618 5613 5609 5602 5596 5587 5579 5572 5565 5559 5552 5545 5538 5532 5527 5524 5519 5514 5510 5506 5500 5495 5492 5488 5487 5487 5489 5489 5493 5502 5508 5518 5528 5538 5549 5558 5564
5719 5695 5693 5688 5687 5678 5660 5651 5652 5636 5620 5611 5604 5602 5600 5594 5585 5576 5569 5559 5549 5542 5535 5531 5529 5524 5518 5514 5513 5509 5503 5499 5496 5491 5488 5486 5484 5483 5483 5483 5484 5487 5493 5498 5503 5514 5524 5533 5544
5697 5699 5690 5679 5673 5664 5651 5643 5627 5622 5611 5610 5606 5601 5593 5583 5574 5565 5555 5543 5534 5527 5524 5521 5519 5515 5511 5506 5500 5499 5497 5493 5490 5487 5482 5480 5478 5476 5474 5474 5476 5478 5480 5485 5489 5497 5504 5512 5522
5693 5684 5679 5673 5664 5654 5649 5634 5625 5614 5611 5609 5605 5597 5585 5574 5563 5552 5538 5527 5521 5520 5519 5514 5509 5506 5503 5500 5496 5492 5492 5488 5483 5478 5473 5471 5469 5466 5464 5464 5462 5463 5468 5472 5477 5482 5488 5494 5500
5693 5679 5668 5662 5655 5648 5637 5628 5627 5612 5610 5608 5600 5590 5577 5565 5553 5539 5524 5518 5515 5514 5514 5509 5504 5502 5499 5494 5491 5490 5488 5482 5476 5470 5466 5462 5459 5457 5456 5453 5452 5452 5453 5455 5462 5465 5470 5478 5482
5686 5669 5662 5655 5651 5644 5640 5624 5614 5611 5608 5601 5592 5581 5568 5555 5540 5524 5517 5513 5512 5509 5507 5504 5500 5497 5494 5488 5485 5484 5478 5472 5467 5461 5456 5452 5449 5445 5444 5442 5439 5440 5441 5443 5446 5451 5456 5461 5469
5688 5674 5658 5657 5652 5643 5635 5624 5612 5609 5603 5594 5585 5572 5557 5545 5531 5521 5515 5509 5506 5506 5503 5499 5495 5492 5488 5482 5478 5474 5468 5463 5457 5453 5448 5444 5439 5434 5431 5429 5428 5426 5427 5429 5431 5435 5439 5446 5454
5683 5676 5674 5654 5656 5645 5630 5626 5609 5605 5600 5588 5574 5560 5549 5534 5525 5519 5514 5507 5503 5501 5498 5494 5489 5485 5481 5476 5471 5465 5460 5454 5449 5445 5440 5432 5426 5419 5414 5411 5410 5411 5413 5415 5419 5423 5426 5432 5441
5675 5679 5684 5663 5651 5644 5633 5623 5608 5601 5593 5581 5566 5551 5537 5525 5520 5516 5512 5506 5501 5497 5494 5489 5485 5482 5478 5471 5465 5459 5453 5448 5442 5435 5426 5417 5409 5399 5392 5389 5389 5391 5396 5401 5404 5410 5414 5417 5424
5683 5684 5680 5658 5650 5641 5634 5629 5609 5598 5586 5576 5561 5544 5530 5518 5517 5512 5506 5502 5497 5493 5489 5485 5480 5477 5473 5465 5459 5453 5447 5441 5431 5423 5412 5400 5388 5379 5373 5369 5366 5367 5372 5380 5388 5394 5401 5407 5410
5687 5681 5663 5653 5647 5635 5635 5627 5612 5596 5585 5571 5560 5541 5525 5514 5511 5507 5500 5495 5493 5488 5483 5480 5476 5471 5464 5458 5452 5446 5438 5429 5421 5411 5396 5383 5372 5365 5359 5354 5352 5350 5355 5360 5369 5378 5388 5396 5400
5682 5665 5653 5651 5645 5638 5626 5621 5609 5597 5583 5566 5556 5538 5521 5511 5506 5501 5497 5492 5490 5483 5478 5475 5471 5466 5459 5453 5449 5442 5433 5425 5418 5405 5391 5376 5365 5356 5347 5341 5340 5341 5343 5349 5356 5365 5374 5384 5392
5673 5659 5654 5648 5637 5630 5628 5603 5601 5591 5573 5563 5544 5524 5510 5504 5504 5500 5493 5488 5485 5479 5475 5471 5467 5461 5456 5450 5444 5436 5429 5422 5411 5397 5381 5368 5359 5351 5341 5335 5333 5334 5338 5342 5349 5360 5365 5374 5382
5660 5657 5652 5649 5639 5632 5623 5601 5595 5587 5572 5556 5536 5521 5508 5504 5500 5494 5488 5485 5480 5477 5472 5468 5463 5457 5452 5445 5439 5431 5422 5415 5406 5392 5377 5364 5355 5345 5338 5333 5330 5332 5335 5339 5346 5356 5362 5371 5380
5660 5655 5655 5649 5635 5619 5627 5614 5584 5581 5571 5551 5529 5518 5507 5502 5499 5492 5486 5481 5475 5473 5469 5465 5459 5454 5449 5442 5435 5428 5419 5411 5401 5389 5375 5365 5354 5348 5340 5334 5333 5333 5335 5340 5347 5354 5362 5368 5376
5656 5650 5635 5631 5617 5623 5626 5608 5595 5577 5564 5551 5533 5517 5504 5499 5494 5489 5482 5478 5474 5471 5467 5463 5457 5452 5446 5440 5432 5426 5416 5404 5394 5384 5373 5365 5359 5352 5348 5342 5339 5339 5340 5346 5350 5356 5362 5366 5370
5654 5646 5627 5618 5616 5619 5623 5608 5588 5578 5568 5555 5541 5520 5504 5498 5492 5486 5482 5477 5473 5470 5465 5460 5455 5450 5445 5438 5430 5423 5410 5400 5390 5380 5371 5363 5357 5352 5351 5348 5349 5349 5348 5351 5356 5361 5366 5369 5370
5652 5642 5634 5623 5638 5607 5622 5599 5586 5577 5567 5555 5538 5518 5501 5494 5489 5485 5482 5478 5474 5469 5464 5459 5455 5450 5444 5437 5429 5421 5408 5399 5389 5382 5375 5365 5358 5354 5352 5352 5356 5357 5355 5356 5360 5366 5370 5374 5376
5646 5641 5627 5616 5596 5599 5629 5612 5584 5570 5569 5553 5531 5511 5499 5495 5491 5486 5483 5478 5473 5469 5464 5459 5455 5449 5443 5436 5429 5420 5409 5401 5393 5385 5377 5367 5360 5354 5352 5351 5355 5357 5359 5361 5365 5369 5374 5377 5378
5640 5638 5633 5622 5611 5583 5587 5602 5607 5577 5566 5546 5531 5513 5502 5499 5491 5487 5482 5477 5472 5469 5464 5459 5454 5448 5441 5435 5430 5419 5411 5405 5396 5387 5377 5368 5362 5353 5349 5351 5353 5356 5358 5361 5364 5367 5370 5374 5376
5644 5641 5634 5600 5609 5596 5567 5585 5599 5577 5566 5548 5536 5516 5510 5501 5492 5488 5483 5473 5467 5464 5461 5458 5453 5447 5441 5436 5430 5420 5412 5406 5399 5389 5380 5371 5366 5355 5348 5350 5353 5355 5358 5359 5361 5363 5365 5367 5367